Акжал

Казахстан     47°44′50″N   74°01′32″E
темп.,
°C
ветер,
м/с
пор.,
м/с
влажн.,
%
обл.,
%
осадки,
мм/ч
давл.,
гПа
погр.,
м
1 марта, пн
пн100:00−4ююз61391100 0.1 1023379
03:00−4ююз71489100 0.0 1022329
06:00−4ююз61293100 0.0 1021271
09:00−3ююз51094100 0.3 1021355
12:00−1юз61091100 0.3 1021494
15:000ююз71183100 0.0 1020615
18:00−1ююз4889100 0.0 1020241
21:00−2ююз4895100 0.5 1021303
2 марта, вт
вт200:00−2ююз3790100 0.8 1021206
03:00−3ююз2389100 0.3 102065
06:00−3ю3384100 0.4 102039
09:00−4ю3587100 0.0 1019114
12:00−1ююз4584100 0.0 1018272
15:000зюз5996100 0.2 1017617
18:00−1зюз4986100 0.4 1018397
21:00−8з458482 0.0 102272
3 марта, ср
ср300:00−14зсз448675 0.0 102441
03:00−17сз338910 0.0 102620
06:00−18зсз23906 0.0 102820
09:00−18ю11910 0.0 102920
12:00−13юз33850 0.0 1029164
15:00−10юз36840 0.0 1028365
18:00−13юз34890 0.0 102826
21:00−15ююз23900 0.0 103020
4 марта, чт
чт400:00−16ю22890 0.0 103020
03:00−16ююв228978 0.0 102920
06:00−17ююв239882 0.0 102920
09:00−16юв239793 0.0 102822
12:00−11юв359073 0.0 1026226
15:00−8ююв469040 0.0 1023293
18:00−6юв489370 0.1 1021353
21:00−6юв51096100 0.3 1019297
5 марта, пт
пт500:00−4ю61197100 2.6 1016413
03:000зюз71491100 1.4 1014807
06:00−5з7148699 1.4 1018357
09:00−7з7148528 0.0 1022370
12:00−4зсз7118415 0.0 1026604
15:00−4з58830 0.0 1029620
18:00−8юз34850 0.0 103230
21:00−12юз34850 0.0 103421